Location: Braden Valley Church
(38.0012°N, 88.6106°W)
Time: 01:43:06
(UTC+00:00)

Landsat 5 - Pass Details

Date: 08 December 2021
Orbit: 527 x 653 km, 98.2° (Epoch: 21 January)

Event Time Altitude Azimuth Distance (km) Brightness Sun altitude
Exits shadow 23:31:04 14° 49° (NE) 1,614 5.1 -10.9°
Maximum altitude 23:33:32 23° 96° (E) 1,183 4.5 -11.4°
Drops below altitude 10° 23:36:40 10° 150° (SSE) 1,796 5.8 -12.0°
Sets 23:39:04 0° 165° (SSE) 2,668 6.9 -12.4°
